Ketchikan, AK

4:25 AM AKDT on August 15, 2018 (GMT -0800)
Ketchikan International

Weather History for PAKT - April, 2018

Change the Weather History Date:

Tuesday, April 24, 2018

  Actual Average Record
Temperature  
Mean Temperature 48 °F -  
Max Temperature 53 °F 51 °F 68 °F (1977)
Min Temperature 44 °F 37 °F 28 °F (2008)
Degree Days  
Heating Degree Days 16    
Moisture  
Dew Point 42 °F    
Average Humidity 84    
Maximum Humidity 100    
Minimum Humidity 54    
Precipitation  
Precipitation 0.08 in - - ()
Sea Level Pressure  
Sea Level Pressure 30.37 in    
Wind  
Wind Speed 6 mph (SSE)    
Max Wind Speed 12 mph    
Max Gust Speed -    
Visibility 8 miles    
Events Rain    
Averages and records for this station are not official NWS values.
T = Trace of Precipitation, MM = Missing Value Source: NWS Daily Summary

Daily Weather History Graph

Daily Weather History Graph

Search for Another Location

Airport or City:

Astronomy

Apr. 24, 2018 Rise Set
Actual Time 5:20 AM AKDT 8:10 PM AKDT
Civil Twilight 4:39 AM AKDT 8:52 PM AKDT
Nautical Twilight 3:44 AM AKDT 9:47 PM AKDT
Astronomical Twilight 2:33 AM AKDT 11:00 PM AKDT
Moon 1:31 PM AKDT (4/24) 3:52 AM AKDT (4/24)
Length of Visible Light 16h 12m
Length of Day
14h 49m
Waxing Gibbous, 71% of the Moon is Illuminated
Apr 24
Waxing Gibbous
Apr 29
Full
May 7
Last Quarter
May 15
New
May 21
First Quarter

Hourly Weather History & Observations

Time (AKDT) Temp. Windchill Dew Point Humidity Pressure Visibility Wind Dir Wind Speed Gust Speed Precip Events Conditions
12:50 AM 44.6 °F 41.4 °F 42.8 °F 93% 30.31 in 3.0 mi South 5.8 mph - 0.03 in Rain Light Rain
12:53 AM 44.1 °F 42.5 °F 43.0 °F 96% 30.31 in 3.0 mi South 3.5 mph - 0.03 in Rain Light Rain
1:17 AM 44.1 °F 41.5 °F 43.0 °F 96% 30.31 in 2.5 mi South 4.6 mph - 0.02 in Rain Light Rain
1:39 AM 44.1 °F 41.5 °F 43.0 °F 96% 30.31 in 4.0 mi South 4.6 mph - 0.03 in   Overcast
1:53 AM 45.0 °F 41.8 °F 43.0 °F 93% 30.32 in 3.0 mi SSE 5.8 mph - 0.03 in Rain Light Rain
2:53 AM 45.0 °F - 43.0 °F 93% 30.32 in 3.0 mi Calm Calm - 0.02 in   Overcast
3:53 AM 44.1 °F 41.5 °F 42.1 °F 93% 30.33 in 10.0 mi SSE 4.6 mph - 0.00 in Rain Light Rain
4:53 AM 44.1 °F 42.5 °F 42.1 °F 93% 30.33 in 9.0 mi SSE 3.5 mph - 0.00 in   Overcast
5:53 AM 44.1 °F 42.5 °F 42.1 °F 93% 30.35 in 10.0 mi SE 3.5 mph - N/A   Overcast
6:05 AM 44.1 °F 41.5 °F 42.1 °F 93% 30.34 in 10.0 mi SSE 4.6 mph - N/A   Overcast
6:53 AM 44.6 °F 42.2 °F 42.8 °F 93% 30.35 in 10.0 mi SSE 4.6 mph - N/A Rain Light Rain
7:53 AM 44.6 °F 41.4 °F 42.8 °F 93% 30.38 in 8.0 mi SE 5.8 mph - N/A   Overcast
8:53 AM 44.6 °F 41.4 °F 44.6 °F 100% 30.38 in 5.0 mi SE 5.8 mph - N/A   Overcast
9:01 AM 45.0 °F 41.8 °F 43.0 °F 93% 30.38 in 10.0 mi SE 5.8 mph - N/A   Overcast
9:51 AM 46.4 °F 44.3 °F 44.6 °F 93% 30.39 in 10.0 mi ESE 4.6 mph - N/A   Mostly Cloudy
9:53 AM 46.4 °F 43.5 °F 44.6 °F 93% 30.39 in 10.0 mi SE 5.8 mph - N/A   Mostly Cloudy
10:53 AM 46.4 °F - 42.8 °F 87% 30.40 in 10.0 mi Calm Calm - N/A   Mostly Cloudy
11:53 AM 50.0 °F - 42.8 °F 76% 30.41 in 10.0 mi NNW 9.2 mph - N/A   Scattered Clouds
12:53 PM 51.8 °F - 39.2 °F 62% 30.40 in 10.0 mi NNW 10.4 mph - N/A   Scattered Clouds
2:53 PM 53.6 °F - 37.4 °F 54% 30.41 in 10.0 mi NNW 9.2 mph - N/A   Scattered Clouds
3:53 PM 51.8 °F - 37.4 °F 58% 30.41 in 10.0 mi NNW 9.2 mph - N/A   Mostly Cloudy
4:53 PM 51.8 °F - 37.4 °F 58% 30.41 in 10.0 mi NNW 6.9 mph - N/A   Overcast
5:53 PM 51.8 °F - 39.2 °F 62% 30.41 in 10.0 mi NW 6.9 mph - N/A   Overcast
6:53 PM 50.0 °F - 39.2 °F 66% 30.41 in 10.0 mi NNW 11.5 mph - N/A   Overcast
7:53 PM 48.2 °F - 41.0 °F 76% 30.40 in 10.0 mi NNW 8.1 mph - N/A   Overcast
8:53 PM 46.9 °F - 39.9 °F 77% 30.43 in 10.0 mi NW 9.2 mph - N/A   Overcast
9:53 PM 46.0 °F 42.5 °F 42.1 °F 86% 30.42 in 10.0 mi NNW 6.9 mph - N/A   Clear
10:53 PM 44.1 °F 39.5 °F 42.1 °F 93% 30.42 in 10.0 mi NNW 8.1 mph - N/A   Clear
11:53 PM 44.1 °F 39.0 °F 41.0 °F 89% 30.43 in 10.0 mi NNW 9.2 mph - N/A   Scattered Clouds